User: anonymous   Login
Location: Mactaquac Provincial Park
(45.9573°N, 66.8897°W)
Time: 13:05:22
(UTC-03:00)
Language:

Cosmos 1867 - Orbit

View from above orbital plane
View from above orbital plane
View from above satellite
View from above satellite

Ground track
Ground track

The orbit data is extracted from the following two-line orbital elements,

1 18187U 87060A   17179.55245240 -.00000084 +00000-0 +62607-5 0  9997
2 18187 065.0089 196.9990 0014250 262.7475 097.1989 14.31086407565624
Epoch (UTC): 28 June 2017 13:15:31
Eccentricity: 0.0014250
inclination: 65.0089°
perigee height: 778 km
apogee height: 798 km
right ascension of ascending node: 196.9990°
argument of perigee: 262.7475°
revolutions per day: 14.31086407
mean anomaly at epoch: 97.1989°
orbit number at epoch: 56562

The dashed part of the orbit path shows where the satellite is in the earth's shadow,  

DLR